Location: ????????
(56.0167°N, 38.0333°E)
Time: 14:47:09
(UTC+00:00)

NPP - Pass Details

Date: 19 May 2025
Orbit: 826 x 827 km, 98.8° (Epoch: 21 June)

Event Time Altitude Azimuth Distance (km) Brightness Sun altitude
Rises 23:29:25 0° 17° (NNE) 3,382 8.7 -9.5°
Reaches altitude 10° 23:31:47 10° 18° (NNE) 2,444 7.6 -9.4°
Maximum altitude 23:37:12 79° 105° (ESE) 850 3.8 -9.0°
Drops below altitude 10° 23:42:36 10° 193° (SSW) 2,428 5.5 -8.6°
Enters shadow 23:42:50 - 193° (SSW) 2,519 5.6 -8.6°
